Date,TemperatureHighF,TemperatureAvgF,TemperatureLowF,DewpointHighF,DewpointAvgF,DewpointLowF,HumidityHigh,HumidityAvg,HumidityLow,PressureMaxIn,PressureMinIn,WindSpeedMaxMPH,WindSpeedAvgMPH,GustSpeedMaxMPH,PrecipitationSumIn
2013-1-1,53.4,42.6,34.3,34.8,31.9,27.1,89,68,40,30.29,30.21,18,2,18,0.00
2013-1-2,55.7,42.7,33.3,35.7,30.8,25.5,82,64,43,30.26,30.15,9,0,9,0.00
2013-1-3,54.7,42.5,30.9,40.3,34.3,27.8,89,74,48,30.28,30.18,7,0,7,0.00
2013-1-4,57.0,44.4,34.8,40.0,34.9,31.4,92,71,43,30.31,30.19,9,0,9,0.00
2013-1-5,48.4,42.3,34.2,42.7,38.4,31.9,96,86,72,30.28,30.08,9,1,9,0.46
2013-1-6,54.4,45.3,39.7,46.7,42.7,38.4,97,91,72,30.19,30.08,12,1,12,0.06
2013-1-7,56.7,44.7,36.3,47.8,41.7,35.2,98,90,69,30.24,30.14,5,0,5,0.00
2013-1-8,56.7,44.6,36.0,47.4,41.9,35.8,99,91,70,30.27,30.14,5,0,5,0.01
2013-1-9,53.1,44.9,38.9,49.0,40.7,30.8,99,86,56,30.17,29.93,18,1,18,0.00
2013-1-10,52.7,45.2,37.8,38.0,32.0,28.2,77,60,42,30.14,30.01,16,2,16,0.00
2013-1-11,53.4,43.2,33.2,37.4,31.7,27.7,83,65,42,30.23,30.12,13,1,13,0.00
2013-1-12,51.4,41.5,34.1,32.8,27.1,23.0,76,58,35,30.25,30.14,10,1,10,0.00
2013-1-13,49.1,40.5,29.4,26.6,18.1,11.4,69,43,25,30.27,30.17,18,3,18,0.00
2013-1-14,52.1,43.1,37.6,26.2,18.1,12.1,58,37,25,30.41,30.22,19,5,20,0.00
2013-1-15,53.2,39.8,29.5,32.2,28.3,23.5,82,64,41,30.51,30.38,9,0,9,0.00
2013-1-16,58.2,43.5,31.9,37.7,32.6,27.9,88,67,42,30.45,30.28,7,0,7,0.00
2013-1-17,60.7,45.5,33.6,41.1,35.1,30.1,94,69,37,30.29,30.17,9,0,9,0.00
2013-1-18,64.1,48.4,36.3,38.7,32.3,27.1,84,56,28,30.26,30.15,12,1,12,0.00
2013-1-19,64.3,48.3,33.5,36.4,29.6,26.3,84,51,25,30.29,30.17,13,1,13,0.00
2013-1-20,65.5,49.5,36.9,34.3,29.3,25.1,74,48,24,30.25,30.13,13,1,13,0.00
2013-1-21,63.9,48.2,36.1,40.8,34.3,28.1,79,60,36,30.20,30.11,6,0,6,0.00
2013-1-22,62.3,50.2,36.1,38.3,34.9,30.4,81,57,34,30.15,30.02,12,1,13,0.00
2013-1-23,53.2,49.2,46.7,47.5,41.5,34.9,96,76,55,30.13,29.98,12,1,12,0.19
2013-1-24,60.1,53.4,48.5,54.5,50.8,46.9,98,91,75,30.19,30.07,12,1,12,0.02
2013-1-25,68.3,57.2,49.6,56.5,53.0,49.1,99,87,63,30.19,30.02,7,0,7,0.00
2013-1-26,62.0,53.5,45.2,51.4,43.2,35.1,99,71,41,30.03,29.92,21,2,21,0.00
2013-1-27,57.1,48.6,37.6,37.5,33.4,28.2,85,57,34,30.15,30.02,15,1,15,0.00
2013-1-28,61.6,50.7,38.2,38.3,34.9,31.6,80,56,35,30.25,30.13,10,1,12,0.00
2013-1-29,61.5,48.8,38.2,43.7,39.6,35.2,90,72,46,30.34,30.23,5,0,5,0.00
2013-1-30,66.7,52.4,41.3,45.0,41.8,38.3,91,69,42,30.35,30.25,11,1,11,0.00
2013-1-31,65.3,51.4,39.4,48.4,43.3,37.0,94,75,49,30.31,30.19,6,0,7,0.00
2013-2-1,66.5,52.8,39.5,43.5,41.1,36.8,91,66,40,30.23,30.13,13,1,13,0.00
2013-2-2,66.8,52.9,44.4,46.0,42.3,39.8,87,69,42,30.29,30.19,8,0,8,0.00
2013-2-3,67.1,51.6,39.4,48.6,43.1,37.7,97,75,45,30.23,30.11,7,0,7,0.00
2013-2-4,66.4,50.9,39.3,50.2,43.8,37.5,96,78,51,30.17,30.04,6,0,6,0.00
2013-2-5,63.6,48.4,38.6,47.4,42.7,37.3,97,82,54,30.12,30.01,6,0,6,0.00
2013-2-6,62.3,50.1,38.1,45.5,41.1,36.5,95,73,44,30.18,30.08,12,1,12,0.00
2013-2-7,59.4,48.9,42.8,47.3,39.3,30.2,94,72,34,30.14,29.97,15,2,15,0.04
2013-2-8,57.7,47.9,37.2,39.7,31.5,21.6,89,58,30,30.00,29.92,19,3,19,0.00
2013-2-9,59.7,50.5,39.1,30.0,25.9,22.7,68,39,25,30.07,29.97,18,4,18,0.00
2013-2-10,62.9,49.4,36.2,38.0,30.7,22.4,80,52,30,30.13,30.00,17,2,17,0.00
2013-2-11,65.8,54.1,41.9,35.8,28.1,22.1,67,38,20,30.21,30.06,19,2,19,0.00
2013-2-12,63.7,48.5,36.7,40.6,36.4,31.1,85,65,38,30.38,30.21,7,0,8,0.00
2013-2-13,68.0,51.7,38.3,44.4,40.4,35.3,91,68,38,30.33,30.19,6,0,6,0.00
2013-2-14,72.8,56.0,41.8,44.5,40.1,35.7,90,59,28,30.25,30.15,22,2,22,0.00
2013-2-15,72.0,57.3,46.1,43.3,38.0,33.9,72,50,28,30.28,30.20,12,1,13,0.00
2013-2-16,71.3,55.3,42.5,46.8,42.4,37.1,86,64,37,30.24,30.00,9,1,9,0.00
2013-2-17,68.2,53.2,40.6,42.5,36.9,26.4,93,60,22,30.03,29.94,15,1,15,0.00
2013-2-18,56.2,47.9,38.5,44.3,39.6,35.4,91,74,55,29.99,29.88,19,3,23,0.00
2013-2-19,52.9,44.3,36.1,43.8,36.8,28.3,93,76,41,29.91,29.70,16,2,16,0.19
2013-2-20,62.4,49.8,33.9,35.3,30.9,23.0,91,53,23,30.01,29.82,18,3,19,0.00
2013-2-21,63.4,50.9,37.1,34.8,30.7,23.7,88,49,22,30.16,30.00,22,2,22,0.00
2013-2-22,68.8,53.5,38.3,42.8,37.0,29.4,81,56,31,30.24,30.11,12,1,12,0.00
2013-2-23,60.8,54.0,48.1,41.8,29.3,19.6,75,42,21,30.24,30.11,22,4,22,0.00
2013-2-24,65.7,54.3,46.9,31.0,23.7,19.5,51,31,18,30.23,30.14,19,4,20,0.00
2013-2-25,63.9,51.7,37.2,41.5,34.4,25.3,88,54,30,30.24,30.15,16,2,16,0.00
2013-2-26,70.9,57.2,45.4,32.1,22.5,16.1,56,28,14,30.20,30.11,21,3,24,0.00
2013-2-27,70.2,54.2,41.2,39.6,32.4,22.0,68,45,27,30.33,30.18,7,0,8,0.00
2013-2-28,73.5,59.1,46.8,52.6,44.2,38.4,78,60,36,30.43,30.33,9,0,9,0.00
2013-3-1,75.8,60.0,46.2,49.3,46.1,42.4,88,63,34,30.41,30.23,10,1,11,0.00
2013-3-2,70.8,59.9,48.4,52.8,49.0,44.7,87,69,48,30.24,30.04,11,1,11,0.00
2013-3-3,69.3,59.2,50.1,54.4,48.4,43.9,82,68,47,30.05,29.98,13,2,13,0.00
2013-3-4,67.2,54.6,43.1,51.5,45.1,34.9,95,71,53,30.11,30.00,8,1,9,0.00
2013-3-5,58.6,51.8,43.2,45.6,38.2,17.0,87,60,30,30.01,29.81,20,3,20,0.14
2013-3-6,58.6,50.4,40.1,46.8,41.3,35.9,92,72,47,30.05,29.81,25,3,25,0.10
2013-3-7,59.2,48.2,38.5,40.8,37.3,34.8,88,68,44,29.99,29.85,12,1,12,0.00
2013-3-8,68.4,52.7,38.4,43.1,37.8,30.2,89,61,25,30.00,29.80,12,1,12,0.00
2013-3-9,71.3,56.3,41.4,45.0,33.6,23.0,92,50,18,30.27,30.00,19,2,21,0.00
2013-3-10,72.1,56.7,44.1,44.0,37.3,27.6,75,50,24,30.36,30.23,8,1,8,0.00
2013-3-11,74.8,58.4,42.0,48.2,43.6,37.7,86,61,36,30.25,30.07,6,1,6,0.00
2013-3-12,78.3,60.3,44.8,52.5,48.0,42.0,92,67,36,30.15,30.04,11,1,11,0.00
2013-3-13,79.6,64.0,50.0,55.0,51.3,47.5,93,66,38,30.16,30.05,12,1,12,0.00
2013-3-14,77.8,64.7,52.8,57.9,52.0,44.6,88,65,47,30.13,30.05,6,0,6,0.00
2013-3-15,80.2,63.9,49.6,52.9,47.8,42.4,83,59,29,30.09,29.98,8,1,8,0.00
2013-3-16,79.8,64.8,47.8,51.8,45.6,37.5,88,54,28,30.06,29.95,16,2,18,0.00
2013-3-17,74.5,60.6,44.5,45.5,40.1,32.3,80,50,23,30.13,30.00,9,1,13,0.00
2013-3-18,72.7,59.2,44.5,46.9,42.4,37.9,86,56,32,30.09,29.99,9,1,9,0.00
2013-3-19,70.8,58.3,48.7,48.3,44.5,31.9,88,62,35,30.11,30.02,12,1,14,0.01
2013-3-20,62.9,55.4,48.8,55.2,50.9,44.8,94,85,71,30.11,30.05,14,2,14,0.06
2013-3-21,68.5,56.4,45.7,49.3,34.5,21.6,92,50,17,30.11,29.99,17,2,21,0.00
2013-3-22,67.3,59.0,49.4,29.0,18.6,11.6,43,21,13,30.11,30.01,21,6,21,0.00
2013-3-23,73.0,59.9,47.0,41.9,27.2,17.8,64,31,15,30.13,30.01,13,2,16,0.00
2013-3-24,75.5,59.2,43.6,45.6,40.6,31.1,83,54,22,30.08,29.92,9,1,9,0.00
2013-3-25,69.0,58.9,45.0,48.7,43.1,34.8,91,58,31,29.98,29.87,14,3,14,0.00
2013-3-26,73.5,59.1,45.6,48.1,44.5,40.7,89,61,32,29.98,29.89,12,2,12,0.00
2013-3-27,69.0,59.1,51.1,52.0,48.5,43.6,83,69,50,29.99,29.90,16,2,16,0.00
2013-3-28,71.8,60.2,51.5,53.2,50.6,46.5,88,72,50,30.08,29.99,9,1,9,0.00
2013-3-29,79.1,64.6,53.2,53.0,49.9,47.5,87,62,36,30.09,29.98,16,2,16,0.00
2013-3-30,73.7,63.0,55.5,55.3,51.2,46.5,86,67,42,30.03,29.94,11,1,12,0.04
2013-3-31,69.2,58.9,53.3,55.8,52.5,47.6,94,81,47,30.08,29.98,18,1,18,0.12
2013-4-1,70.8,60.0,52.6,56.0,52.2,48.8,96,77,49,30.14,30.04,8,1,9,0.10
2013-4-2,75.2,61.5,47.8,56.5,51.6,45.9,95,72,50,30.16,30.03,8,1,8,0.00
2013-4-3,77.2,62.6,48.5,58.7,51.8,46.9,95,70,40,30.11,29.95,8,0,9,0.00
2013-4-4,67.0,57.9,51.9,58.2,52.8,42.9,96,84,52,30.09,29.94,14,2,14,0.41
2013-4-5,69.3,60.2,53.5,54.1,50.9,48.1,92,73,52,30.14,30.08,13,2,13,0.00
2013-4-6,71.1,60.6,53.9,55.2,50.8,44.4,87,71,50,30.17,30.07,17,3,17,0.00
2013-4-7,69.8,58.6,50.1,55.0,48.6,44.0,95,70,51,30.12,29.74,15,2,15,0.07
2013-4-8,68.5,58.8,48.9,49.2,31.9,21.7,95,41,17,30.00,29.73,27,7,28,0.00
2013-4-9,76.3,65.7,55.9,34.8,30.9,27.6,37,28,17,30.09,30.00,24,6,24,0.00
2013-4-10,89.3,76.6,67.1,53.9,43.9,33.7,39,32,24,30.15,29.94,22,4,22,0.00
2013-4-11,80.3,68.9,53.6,49.7,38.7,30.4,78,37,17,29.99,29.80,17,2,17,0.00
2013-4-12,82.8,67.1,49.5,53.7,43.9,36.7,78,46,24,29.88,29.75,9,1,11,0.00
2013-4-13,80.7,63.2,49.1,52.5,47.9,43.8,85,60,30,29.86,29.74,11,1,11,0.00
2013-4-14,76.7,61.3,46.4,46.2,41.9,27.9,85,54,22,29.89,29.73,26,3,26,0.00
2013-4-15,65.5,56.2,45.5,45.0,38.2,29.5,85,54,29,29.91,29.77,15,2,19,0.00
2013-4-16,67.3,58.5,51.0,31.9,25.8,19.1,47,30,17,30.15,29.91,26,6,26,0.00
2013-4-17,69.7,60.7,52.2,31.8,25.7,18.9,41,27,15,30.27,30.15,23,5,25,0.00
2013-4-18,78.5,66.3,55.7,44.1,32.6,23.7,59,30,18,30.25,30.14,17,2,17,0.00
2013-4-19,84.1,68.1,49.6,53.4,45.5,40.2,76,47,27,30.22,30.01,12,1,12,0.00
2013-4-20,86.8,71.7,61.6,47.8,38.7,28.9,52,32,13,30.09,29.92,18,3,19,0.00
2013-4-21,90.9,72.6,53.8,46.6,41.3,31.8,69,37,14,30.02,29.88,17,1,17,0.00
2013-4-22,89.3,76.1,58.7,46.6,35.2,17.7,60,27,10,29.94,29.82,20,3,21,0.00
2013-4-23,86.3,73.0,58.5,41.8,26.4,17.4,49,19,8,29.92,29.80,22,5,23,0.00
2013-4-24,87.7,69.0,50.8,50.0,37.1,24.3,67,37,12,29.83,29.73,20,3,20,0.00
2013-4-25,78.5,63.6,48.5,51.6,46.5,40.3,82,56,34,30.03,29.81,15,2,15,0.00
2013-4-26,84.0,65.3,48.1,55.7,49.6,44.9,91,60,36,30.18,30.03,10,1,10,0.00
2013-4-27,89.6,69.5,50.7,56.8,51.0,46.5,88,56,24,30.18,29.99,10,1,10,0.00
2013-4-28,92.5,73.6,53.7,56.3,50.7,41.0,84,50,18,30.01,29.82,11,1,11,0.00
2013-4-29,93.9,80.6,66.9,54.0,46.1,38.4,61,31,17,29.86,29.71,15,1,15,0.00
2013-4-30,84.7,76.6,68.1,46.6,24.7,7.7,37,17,7,29.84,29.72,26,6,26,0.00
2013-5-1,86.3,75.5,64.2,27.5,19.9,15.2,17,12,10,30.04,29.82,25,8,31,0.00
2013-5-2,93.8,79.2,67.3,38.8,25.2,14.5,31,14,10,30.14,30.02,17,3,17,0.00
2013-5-3,94.0,76.6,58.0,45.7,39.7,29.0,52,29,11,30.02,29.72,15,1,15,0.00
2013-5-4,90.2,77.8,59.9,48.1,35.5,26.5,64,24,11,29.73,29.49,20,4,21,0.00
2013-5-5,70.6,62.5,55.9,48.8,46.8,43.6,71,57,43,29.78,29.51,13,2,13,0.00
2013-5-6,73.3,62.7,57.2,57.0,52.2,46.6,93,70,49,29.94,29.78,9,1,12,0.38
2013-5-7,76.4,65.7,56.9,54.2,50.8,47.7,85,60,41,30.00,29.92,12,1,12,0.00
2013-5-8,76.5,64.9,55.9,54.2,51.4,46.8,80,63,44,30.07,29.98,12,3,13,0.00
2013-5-9,82.5,66.9,53.3,57.7,53.2,49.7,90,64,40,30.10,29.98,14,2,14,0.00
2013-5-10,91.9,70.6,52.9,60.7,54.7,49.1,89,60,33,30.13,29.99,12,1,12,0.00
2013-5-11,94.8,75.6,55.9,62.9,56.5,48.2,90,56,25,30.08,29.97,10,1,10,0.00
2013-5-12,94.8,76.6,56.3,56.6,49.6,35.5,81,44,13,30.06,29.94,12,1,12,0.00
2013-5-13,92.9,74.9,55.0,57.8,52.5,47.2,77,49,26,30.02,29.86,10,1,11,0.00
2013-5-14,93.3,74.9,59.8,58.3,52.7,46.2,76,49,21,29.88,29.80,13,2,13,0.00
2013-5-15,81.0,67.8,55.0,50.8,47.0,41.1,66,48,32,29.97,29.86,14,2,14,0.00
2013-5-16,77.7,66.4,57.6,53.0,48.4,44.0,69,53,37,29.96,29.86,14,2,15,0.00
2013-5-17,77.9,63.6,51.2,48.6,45.0,40.9,79,54,30,30.00,29.90,15,2,15,0.00
2013-5-18,83.3,67.4,47.7,52.0,47.3,42.5,85,52,30,30.10,29.99,14,2,14,0.00
2013-5-19,87.5,73.8,56.3,48.6,36.8,19.0,75,32,8,30.09,29.93,19,3,19,0.00
2013-5-20,92.8,80.3,67.9,43.6,36.9,31.1,40,22,14,29.98,29.83,18,4,18,0.00
2013-5-21,81.7,70.9,59.4,46.4,41.2,32.4,55,36,19,29.91,29.80,16,3,16,0.00
2013-5-22,75.8,61.7,47.5,40.9,31.0,17.5,58,34,13,29.98,29.83,17,2,17,0.00
2013-5-23,77.0,63.0,46.6,43.5,39.6,32.6,76,45,20,29.95,29.84,15,2,15,0.00
2013-5-24,78.8,64.5,47.7,46.3,40.9,26.9,81,46,15,29.97,29.86,12,2,12,0.00
2013-5-25,79.7,64.2,50.2,50.0,45.4,42.6,76,53,32,29.97,29.88,11,2,12,0.00
2013-5-26,80.8,67.3,55.3,50.6,47.7,44.0,77,51,30,30.03,29.95,16,2,18,0.00
2013-5-27,68.8,61.2,53.1,55.6,50.3,43.0,92,68,43,30.07,29.96,11,2,11,0.01
2013-5-28,81.5,68.5,57.5,56.6,54.1,50.9,91,63,36,29.96,29.85,12,2,12,0.00
2013-5-29,84.4,71.9,59.5,54.4,50.7,45.4,71,49,32,29.90,29.81,16,2,16,0.00
2013-5-30,84.4,70.6,53.7,50.3,46.2,37.5,80,45,23,29.94,29.85,12,1,12,0.00
2013-5-31,97.4,78.3,57.9,49.4,38.7,3.3,68,33,4,29.98,29.84,15,1,15,0.00
2013-6-1,101.3,83.6,60.8,54.8,48.1,42.9,70,32,15,29.86,29.69,17,1,17,0.00
2013-6-2,96.0,80.0,62.6,54.2,51.4,45.8,68,40,22,29.70,29.57,11,2,11,0.00
2013-6-3,91.5,76.1,61.7,57.0,52.3,48.0,67,46,25,29.72,29.61,8,2,13,0.00
2013-6-4,88.6,72.6,59.1,56.2,52.0,48.2,74,51,30,29.83,29.71,13,2,13,0.00
2013-6-5,87.8,72.6,56.5,58.3,54.3,50.5,82,55,36,29.94,29.78,12,2,12,0.00
2013-6-6,93.1,70.1,56.8,60.0,54.3,50.9,82,60,31,29.89,29.77,10,1,10,0.00
2013-6-7,106.0,90.7,59.0,65.7,60.1,52.2,80,39,21,29.82,29.65,8,1,9,0.00
2013-6-8,110.2,90.6,73.3,61.3,57.2,52.8,61,35,17,29.69,29.58,18,2,18,0.00
2013-6-9,85.5,75.3,62.0,56.8,53.8,50.6,71,48,36,29.79,29.63,13,2,13,0.00
2013-6-10,71.0,64.5,58.5,55.2,52.9,51.7,81,67,53,29.92,29.68,18,3,18,0.00
2013-6-11,85.2,70.9,56.2,56.7,53.7,50.8,89,58,31,29.94,29.81,9,1,13,0.00
2013-6-12,88.9,73.1,56.7,53.9,48.9,40.5,80,46,22,29.92,29.83,13,2,14,0.00
2013-6-13,88.5,73.2,55.9,49.0,43.9,39.4,69,37,21,30.04,29.89,18,1,18,0.00
2013-6-14,92.3,79.1,69.0,46.4,37.4,32.6,42,23,13,29.94,29.76,16,3,16,0.00
2013-6-15,90.3,73.5,56.2,53.1,47.3,35.6,69,42,24,29.87,29.75,13,2,13,0.00
2013-6-16,93.7,75.5,56.7,53.4,47.9,35.4,76,41,20,30.00,29.87,14,2,14,0.00
2013-6-17,88.2,74.4,58.6,54.3,49.2,44.6,66,43,24,29.99,29.91,15,2,15,0.00
2013-6-18,79.2,68.5,57.3,51.5,48.4,40.7,78,51,26,29.94,29.87,15,2,15,0.00
2013-6-19,80.8,69.6,58.0,48.1,44.2,41.0,58,41,28,30.02,29.92,14,2,14,0.00
2013-6-20,86.5,71.7,53.6,50.8,47.1,43.1,82,45,23,29.96,29.85,13,1,14,0.00
2013-6-21,90.7,78.6,57.5,49.5,46.3,42.9,67,34,20,29.93,29.83,12,2,12,0.00
2013-6-22,93.6,78.0,59.7,51.5,48.1,42.2,69,39,18,29.88,29.74,11,1,11,0.00
2013-6-23,71.8,66.9,62.8,52.9,50.4,48.5,67,56,44,29.74,29.71,7,1,7,0.00
2013-6-24,66.6,64.0,59.1,59.7,57.0,54.6,87,78,68,29.89,29.77,11,2,12,0.04
2013-6-25,76.0,66.5,60.7,66.3,62.0,57.3,96,86,68,29.96,29.86,17,2,23,0.09
2013-6-26,88.4,78.0,61.5,65.2,61.9,56.8,96,60,41,30.00,29.93,13,2,13,0.00
2013-6-27,97.9,80.9,60.9,65.1,60.7,57.0,89,54,30,30.04,29.94,9,1,10,0.00
2013-6-28,105.2,94.5,71.4,65.3,58.8,45.7,71,33,19,29.96,29.81,11,2,11,0.00
2013-6-29,108.1,91.1,70.2,61.4,56.8,49.3,61,34,19,29.87,29.71,7,1,11,0.00
2013-6-30,107.0,89.6,70.6,63.0,58.0,50.8,67,38,17,29.77,29.66,12,1,12,0.00
2013-7-1,105.5,87.0,67.0,64.0,59.7,55.2,71,43,22,29.79,29.68,12,1,12,0.00
2013-7-2,102.3,88.3,72.9,64.0,60.0,55.2,58,40,27,29.80,29.73,16,2,18,0.00
2013-7-3,107.8,87.6,69.3,66.8,61.4,56.7,70,45,25,29.83,29.66,12,1,12,0.00
2013-7-4,108.8,92.6,76.2,63.7,58.3,47.7,62,35,18,29.70,29.55,15,2,15,0.00
2013-7-5,85.2,76.9,66.2,57.6,52.1,45.9,52,43,30,29.67,29.57,16,4,17,0.00
2013-7-6,86.5,78.1,60.2,58.4,56.0,52.3,79,48,37,29.74,29.64,11,3,12,0.00
2013-7-7,93.4,76.3,57.4,58.1,48.5,23.0,83,46,8,29.78,29.69,14,2,14,0.00
2013-7-8,95.2,77.1,57.6,54.6,43.2,11.8,74,38,6,29.89,29.76,12,2,14,0.00
2013-7-9,102.9,82.4,60.2,56.8,48.4,29.5,77,38,8,29.98,29.85,10,1,10,0.00
2013-7-10,98.2,80.1,61.7,55.4,46.9,33.6,67,36,12,29.89,29.78,13,2,14,0.00
2013-7-11,91.0,72.0,56.3,54.4,50.2,46.4,71,49,23,29.86,29.76,14,3,14,0.00
2013-7-12,93.1,72.5,55.7,56.7,52.9,46.6,85,55,21,29.89,29.77,11,2,12,0.00
2013-7-13,96.1,76.5,56.6,58.8,50.3,34.4,84,47,13,29.91,29.80,12,1,12,0.00
2013-7-14,96.6,77.2,56.8,58.0,50.4,39.5,76,43,15,29.93,29.79,11,1,11,0.00
2013-7-15,88.8,70.8,56.8,55.0,50.3,44.7,76,51,23,29.83,29.72,15,3,15,0.00
2013-7-16,84.3,67.6,52.3,54.0,50.8,45.7,81,58,29,29.93,29.76,14,3,15,0.00
2013-7-17,91.0,73.0,52.3,58.3,53.5,47.8,93,55,28,30.06,29.93,10,1,10,0.00
2013-7-18,89.8,67.2,56.3,59.4,52.8,48.2,83,63,34,30.00,29.94,7,0,7,0.00
2013-7-19,101.3,87.1,59.2,59.9,54.3,48.8,78,36,20,29.88,29.71,11,1,11,0.00
2013-7-20,102.2,80.9,61.3,62.0,55.2,48.7,77,46,17,29.77,29.60,10,1,12,0.00
2013-7-21,99.8,79.4,60.6,58.0,53.5,42.8,78,44,23,29.77,29.65,12,2,12,0.00
2013-7-22,94.1,79.6,67.3,56.1,48.5,34.3,61,36,14,29.89,29.77,18,3,18,0.00
2013-7-23,95.4,80.0,68.3,57.1,50.0,38.8,57,36,17,29.95,29.83,10,2,10,0.00
2013-7-24,101.9,83.2,64.2,60.0,54.0,49.6,69,40,19,29.92,29.80,12,1,12,0.00
2013-7-25,102.5,84.0,66.2,59.9,55.3,50.7,66,40,21,29.90,29.81,9,1,13,0.00
2013-7-26,101.7,80.6,62.2,60.0,54.0,50.5,70,43,20,30.00,29.86,7,1,11,0.00
2013-7-27,95.7,76.0,59.0,59.1,55.6,52.3,80,52,27,29.92,29.72,12,2,12,0.00
2013-7-28,89.2,71.6,58.3,59.4,54.6,50.3,82,57,31,29.80,29.68,14,3,14,0.00
2013-7-29,82.8,68.3,55.6,56.7,53.3,50.5,84,61,39,29.92,29.71,15,3,15,0.00
2013-7-30,90.8,72.1,55.9,59.2,53.9,46.3,86,57,22,30.05,29.91,12,1,12,0.00
2013-7-31,92.6,72.1,57.3,56.2,52.7,48.7,84,54,24,30.01,29.88,13,2,13,0.00
2013-8-1,89.2,73.3,59.0,54.9,51.0,48.0,71,48,27,29.98,29.86,13,2,15,0.00
2013-8-2,91.7,74.6,56.2,56.4,51.5,38.8,80,48,17,29.93,29.80,11,1,11,0.00
2013-8-3,91.7,74.0,56.7,57.8,53.0,45.8,84,52,21,29.92,29.81,8,1,8,0.00
2013-8-4,90.8,71.2,55.8,56.4,52.1,42.8,82,55,20,29.94,29.84,12,2,12,0.00
2013-8-5,90.3,71.0,53.8,55.2,50.0,36.4,85,53,15,29.97,29.84,13,2,13,0.00
2013-8-6,87.3,68.9,53.8,54.8,51.4,47.7,84,57,28,29.96,29.87,15,2,15,0.00
2013-8-7,81.3,68.2,54.9,57.5,54.0,51.3,89,63,41,30.02,29.92,12,2,12,0.00
2013-8-8,83.3,68.8,55.8,57.9,53.5,49.5,89,61,35,29.98,29.84,12,2,13,0.00
2013-8-9,83.8,68.2,54.6,57.9,53.8,51.0,89,63,37,29.91,29.84,13,3,15,0.00
2013-8-10,85.8,66.7,56.3,59.4,54.5,51.5,87,67,38,30.00,29.90,10,1,10,0.00
2013-8-11,91.5,80.9,63.1,60.0,54.4,44.3,77,42,25,29.97,29.84,11,2,11,0.00
2013-8-12,91.4,73.8,56.4,58.1,51.8,41.9,86,51,19,29.94,29.85,11,1,11,0.00
2013-8-13,96.5,76.7,56.6,56.6,50.3,42.0,82,45,16,29.96,29.82,11,1,11,0.00
2013-8-14,96.2,78.0,59.6,57.0,53.0,48.2,73,46,21,29.92,29.79,14,1,14,0.00
2013-8-15,97.3,78.9,60.5,62.1,57.8,51.9,83,53,22,29.90,29.82,12,1,12,0.00
2013-8-16,96.7,84.4,63.0,64.7,57.4,48.0,85,43,25,29.93,29.84,11,2,12,0.00
2013-8-17,92.8,76.5,63.3,61.5,57.0,51.2,76,53,30,29.93,29.76,9,1,9,0.00
2013-8-18,100.5,82.2,62.6,63.7,59.6,56.3,82,51,25,29.84,29.71,11,1,11,0.00
2013-8-19,104.4,86.3,71.7,64.3,59.9,55.5,66,44,23,29.84,29.71,10,1,10,0.00
2013-8-20,95.9,81.2,69.4,63.0,58.5,47.6,69,48,31,29.82,29.71,11,2,11,0.00
2013-8-21,93.3,77.7,64.5,58.1,52.4,38.5,72,45,16,29.85,29.75,12,2,12,0.00
2013-8-22,89.6,73.7,60.5,56.6,51.7,46.1,69,49,25,29.87,29.77,13,2,13,0.00
2013-8-23,92.5,73.0,54.9,58.4,53.9,47.3,89,56,23,29.88,29.70,10,1,11,0.00
2013-8-24,91.2,74.9,60.4,57.2,54.4,49.8,75,51,26,29.81,29.73,13,1,13,0.00
2013-8-25,86.3,75.0,65.0,62.3,57.0,47.8,78,56,36,29.88,29.80,18,2,18,0.00
2013-8-26,88.3,73.4,58.6,58.5,55.6,52.6,89,57,33,29.95,29.82,12,2,12,0.00
2013-8-27,93.7,75.2,57.9,56.9,52.8,45.6,82,51,21,29.85,29.73,12,1,12,0.00
2013-8-28,94.5,77.3,59.5,60.3,55.8,51.9,79,51,25,29.85,29.77,12,1,12,0.00
2013-8-29,94.5,78.2,60.2,62.6,58.1,51.8,85,55,25,29.98,29.84,14,2,14,0.00
2013-8-31,95.2,83.8,64.8,59.7,51.9,44.7,75,35,18,29.91,29.80,13,3,13,0.00
2013-9-1,92.3,75.9,63.0,59.1,53.5,44.9,71,49,21,29.87,29.79,14,2,14,0.00
2013-9-2,88.8,77.8,68.9,61.5,58.2,53.9,69,52,31,29.90,29.81,12,2,12,0.00
2013-9-3,88.4,73.5,59.3,58.5,54.4,47.2,86,55,26,29.93,29.84,13,2,13,0.00
2013-9-4,90.4,72.7,57.4,58.1,54.5,46.8,87,57,23,29.98,29.85,12,2,13,0.00
2013-9-5,89.5,73.8,60.7,57.1,54.0,43.6,79,54,21,29.95,29.86,12,2,12,0.00
2013-9-6,93.1,75.9,56.2,54.6,49.0,41.0,87,45,17,29.95,29.79,16,2,16,0.00
2013-9-7,98.7,83.9,63.4,52.8,47.4,38.1,59,31,13,29.86,29.74,10,1,10,0.00
2013-9-8,102.5,82.7,63.0,54.0,48.4,38.6,64,34,12,29.83,29.68,9,1,10,0.00
2013-9-9,103.1,87.2,64.5,54.9,49.9,43.5,62,31,18,29.76,29.60,12,1,12,0.00
2013-9-10,90.3,75.2,62.4,60.3,56.0,51.4,74,53,34,29.78,29.61,14,2,14,0.00
2013-9-11,85.3,70.4,56.9,60.7,56.7,53.1,88,64,41,29.94,29.77,14,1,14,0.00
2013-9-12,91.3,72.9,59.3,62.5,58.4,54.7,90,63,37,29.95,29.77,10,1,10,0.00
2013-9-13,94.1,78.9,60.6,62.1,57.5,53.2,86,50,31,29.84,29.64,10,2,10,0.00
2013-9-14,89.6,76.2,58.3,59.6,56.1,53.0,84,53,34,29.75,29.62,10,2,10,0.00
2013-9-15,88.7,77.5,57.3,56.7,54.6,50.8,79,47,28,29.78,29.62,15,2,15,0.00
2013-9-16,88.4,72.1,57.1,60.0,55.9,53.3,89,60,34,29.85,29.70,10,1,10,0.00
2013-9-17,85.3,70.6,59.2,54.3,52.3,47.3,78,55,29,29.83,29.72,14,2,14,0.00
2013-9-18,90.3,74.6,62.4,53.1,42.9,34.4,70,35,16,29.89,29.76,15,2,16,0.00
2013-9-19,94.4,74.4,55.1,49.9,43.5,38.0,67,36,18,29.83,29.68,6,0,7,0.00
2013-9-20,82.7,69.3,53.9,59.0,49.7,36.8,82,52,30,29.80,29.69,16,2,19,0.00
2013-9-21,69.7,62.8,55.8,62.4,57.5,52.3,96,83,59,29.87,29.77,13,2,13,0.71
2013-9-22,76.2,63.5,51.2,57.7,53.0,49.6,96,71,45,29.98,29.86,10,1,10,0.00
2013-9-23,63.9,57.6,54.8,55.2,53.1,52.1,92,86,66,29.99,29.95,1,0,1,0.00
2013-9-24,65.7,63.4,61.4,54.1,53.1,52.2,77,69,66,29.90,29.87,8,1,8,0.00
2013-9-25,59.1,58.3,57.9,44.6,44.3,43.9,61,60,57,29.87,29.86,4,1,8,0.00
2013-9-26,70.3,63.8,59.0,38.7,36.9,35.9,43,37,29,29.90,29.83,20,7,20,0.00
2013-9-27,80.3,70.6,58.3,39.7,36.7,33.3,46,30,19,30.08,29.98,15,2,17,0.00
2013-9-28,84.6,67.9,49.8,54.4,41.2,30.1,77,42,14,30.07,29.95,10,1,10,0.00
2013-9-29,77.8,66.7,58.4,60.4,57.2,52.0,86,72,53,30.07,29.99,14,2,14,0.00
2013-9-30,77.2,67.7,62.7,63.5,60.7,55.1,95,79,57,30.04,29.91,13,2,13,0.03
2013-10-1,80.2,64.8,49.0,56.1,50.7,45.9,92,63,37,29.98,29.88,9,0,9,0.00
2013-10-2,81.0,67.3,53.7,51.4,46.2,32.7,81,50,28,29.97,29.87,13,2,13,0.00
2013-10-3,73.7,66.8,58.4,39.8,31.9,28.0,42,28,19,30.04,29.92,28,6,31,0.00
2013-10-4,80.6,70.9,62.6,31.2,28.1,23.0,28,21,14,30.09,29.97,30,9,30,0.00
2013-10-5,85.0,71.2,59.9,33.7,26.1,22.3,27,19,13,30.19,30.08,15,3,15,0.00
2013-10-6,86.3,73.6,50.1,41.0,37.1,32.4,56,28,16,30.13,29.96,9,1,9,0.00
2013-10-7,88.5,69.7,52.4,42.4,35.7,22.4,60,32,11,29.98,29.81,8,0,9,0.00
2013-10-8,81.4,68.2,56.6,44.2,38.3,31.6,51,35,18,29.88,29.64,11,1,11,0.00
2013-10-9,75.0,63.4,48.8,45.0,38.6,34.3,77,43,25,29.72,29.58,19,2,19,0.00
2013-10-10,77.0,64.1,52.8,46.7,40.9,34.5,68,44,30,29.96,29.72,8,0,8,0.00
2013-10-11,76.4,61.6,47.2,48.8,45.0,41.7,88,58,32,30.06,29.92,9,0,9,0.00
2013-10-12,78.0,66.5,47.2,49.0,45.7,41.6,86,49,28,29.98,29.82,12,2,12,0.00
2013-10-13,75.9,65.9,58.3,46.6,38.4,34.1,56,38,23,30.02,29.86,22,3,22,0.00
2013-10-14,78.8,66.1,50.6,43.0,36.6,32.0,66,36,19,30.11,29.98,17,2,17,0.00
2013-10-15,69.5,56.7,50.2,37.1,33.7,30.8,58,43,25,30.03,29.99,16,1,16,0.00
2013-10-16,83.5,69.2,53.7,40.4,35.0,27.6,49,30,19,30.09,30.00,10,1,20,0.00
2013-10-17,84.1,67.0,49.8,40.7,36.7,33.2,63,35,18,30.07,29.93,6,0,6,0.00
2013-10-18,84.3,66.5,52.4,45.7,39.7,35.3,62,40,18,30.04,29.94,9,0,10,0.00
2013-10-19,86.0,67.5,50.5,45.5,41.4,37.3,69,41,20,30.07,29.96,5,0,6,0.00
2013-10-20,84.8,67.3,50.7,46.8,42.2,39.1,74,44,21,29.99,29.85,8,0,8,0.00
2013-10-21,83.8,68.5,49.6,47.9,45.1,42.0,78,46,24,29.98,29.88,7,1,7,0.00
2013-10-22,85.5,73.1,52.8,48.3,45.5,42.7,78,39,23,30.00,29.87,9,0,9,0.00
2013-10-23,85.2,65.8,50.5,49.5,44.4,39.5,81,50,22,29.93,29.81,6,0,6,0.00
2013-10-24,77.1,59.4,45.6,49.0,46.1,41.8,91,64,36,30.01,29.87,8,0,8,0.00
2013-10-25,79.8,60.3,46.1,50.8,46.8,43.3,91,64,32,30.16,30.01,8,0,8,0.00
2013-10-26,81.8,63.3,46.5,50.3,46.1,43.0,90,57,26,30.14,29.97,7,0,7,0.00
2013-10-27,68.2,57.4,47.4,49.4,45.0,35.3,86,64,40,29.98,29.53,24,3,24,0.00
2013-10-28,66.5,55.6,44.7,47.5,43.1,38.7,85,65,39,29.81,29.61,13,2,13,0.00
2013-10-29,65.5,55.2,47.3,49.3,45.9,43.8,93,72,48,30.03,29.81,9,0,9,0.00
2013-10-30,70.2,56.8,44.6,49.0,45.5,41.8,92,68,43,30.14,30.03,5,0,5,0.00
2013-10-31,76.0,58.5,45.1,47.7,44.1,40.7,91,62,32,30.17,30.05,5,0,5,0.00
2013-11-1,76.6,60.7,47.5,48.5,43.3,40.1,77,55,31,30.16,30.00,8,0,8,0.00
2013-11-2,77.5,60.6,46.0,49.0,44.0,32.5,86,57,34,30.00,29.83,11,1,11,0.00
2013-11-3,65.6,59.9,51.7,33.0,24.6,19.5,34,26,20,30.02,29.89,18,4,19,0.00
2013-11-4,68.8,59.1,55.2,27.4,26.0,24.2,33,28,19,30.00,29.88,22,6,22,0.00
2013-11-5,74.5,63.4,51.0,39.4,35.8,30.8,59,38,24,30.21,30.10,13,1,13,0.00
2013-11-6,73.3,59.2,48.3,40.9,36.8,33.1,63,45,24,30.28,30.15,6,0,6,0.00
2013-11-7,65.0,55.7,52.0,41.7,38.8,35.7,62,53,41,30.17,30.12,4,0,4,0.00
2013-11-8,77.5,65.0,48.1,49.5,46.5,41.3,79,53,33,30.15,29.91,7,0,7,0.00
2013-11-9,75.8,60.7,49.5,46.5,44.2,42.1,77,56,33,30.03,29.95,9,1,10,0.00
2013-11-10,74.4,58.0,47.7,47.9,44.1,40.1,82,62,34,30.10,30.01,7,0,7,0.00
2013-11-11,68.8,60.8,44.8,46.3,43.3,38.7,79,53,40,30.15,30.07,8,0,8,0.00
2013-11-12,75.0,61.6,52.8,47.2,43.4,41.3,68,53,32,30.25,30.12,6,0,6,0.00
2013-11-13,82.0,64.5,47.8,49.3,44.2,39.9,82,50,28,30.22,30.03,6,0,6,0.00
2013-11-14,68.7,57.6,49.1,52.0,46.4,42.8,83,67,52,30.06,29.89,4,0,4,0.00
2013-11-15,70.2,59.2,45.1,39.7,35.2,26.4,77,44,20,29.81,29.69,16,2,17,0.00
2013-11-16,67.7,55.0,42.6,46.4,41.6,37.0,82,63,34,29.89,29.71,11,1,11,0.00
2013-11-17,66.7,52.8,41.9,49.2,43.9,39.6,94,73,49,30.07,29.89,5,0,6,0.00
2013-11-18,62.8,52.0,42.4,47.7,44.4,40.3,94,77,48,30.14,30.05,8,1,8,0.00
2013-11-19,58.2,54.7,50.8,54.2,51.6,46.2,97,89,74,30.08,29.93,8,1,8,0.44
2013-11-20,59.1,55.9,53.7,57.9,54.9,50.7,98,96,90,29.94,29.81,12,1,14,0.21
2013-11-21,61.0,55.8,51.6,51.2,31.2,19.2,92,44,20,29.95,29.87,28,7,28,0.00
2013-11-22,69.0,61.0,50.9,26.8,14.8,7.7,39,17,11,30.03,29.90,29,10,44,0.00
2013-11-23,65.5,51.6,41.4,40.9,32.1,23.6,77,49,27,30.10,29.98,8,1,8,0.00
2013-11-24,63.7,50.2,40.9,47.3,41.2,35.9,88,72,49,30.25,30.09,9,0,9,0.00
2013-11-25,63.6,49.8,38.3,46.0,41.5,36.2,95,75,49,30.34,30.25,7,0,8,0.00
2013-11-26,62.4,51.7,41.0,40.5,37.8,35.5,85,61,40,30.27,30.08,10,1,10,0.00
2013-11-27,63.4,57.0,47.0,42.1,39.1,34.3,61,51,42,29.99,29.85,13,2,13,0.00
2013-11-28,72.0,57.8,45.0,43.6,40.0,37.3,79,54,29,30.05,29.87,12,1,12,0.00
2013-11-29,71.7,55.9,45.9,44.4,42.0,39.6,80,62,35,30.19,30.05,7,1,8,0.00
2013-11-30,69.2,51.4,43.5,46.3,41.2,37.5,84,70,43,30.27,30.19,8,0,8,0.00
2013-12-1,71.3,58.2,42.3,45.9,43.9,39.3,90,61,38,30.34,30.21,5,0,5,0.00
2013-12-2,68.9,53.1,39.7,50.5,44.9,38.1,96,75,48,30.21,29.87,11,1,12,0.00
2013-12-3,60.6,52.9,46.3,50.3,31.4,16.2,73,46,24,29.93,29.79,17,3,17,0.00
2013-12-4,50.7,43.9,37.2,18.8,13.2,8.3,36,29,19,30.08,29.92,21,3,21,0.00
2013-12-5,52.1,39.6,30.5,22.3,15.5,11.1,66,39,21,30.16,30.07,11,1,11,0.00
2013-12-6,44.7,37.3,27.0,39.3,28.2,21.0,96,71,43,30.21,29.89,9,1,9,0.53
2013-12-7,48.7,40.6,34.0,39.5,30.9,22.5,97,70,36,30.25,29.88,14,2,14,0.01
2013-12-8,44.5,36.3,30.4,27.7,21.2,13.5,83,56,36,30.33,30.23,15,2,15,0.00
2013-12-9,42.9,36.1,31.2,18.1,14.0,11.3,53,40,33,30.42,30.30,15,2,15,0.00
2013-12-10,54.1,41.7,30.2,28.2,24.7,19.5,74,52,32,30.41,30.21,10,1,10,0.00
2013-12-11,57.4,43.0,31.0,32.2,28.5,24.4,79,58,36,30.28,30.19,7,0,7,0.00
2013-12-12,61.0,46.1,33.8,35.0,32.0,27.3,79,60,35,30.28,30.16,10,1,10,0.00
2013-12-13,64.2,47.7,34.3,38.5,33.9,30.0,87,61,33,30.33,30.21,7,0,7,0.00
2013-12-14,59.6,49.5,34.6,38.7,36.1,31.4,88,61,43,30.43,30.32,11,0,11,0.00
2013-12-15,63.4,48.2,36.3,39.1,35.7,31.6,86,64,38,30.38,30.25,8,0,8,0.00
2013-12-16,64.1,49.9,38.5,40.5,36.5,32.8,83,62,37,30.26,30.13,5,0,5,0.00
2013-12-17,64.1,51.8,40.9,39.9,36.7,32.4,81,58,36,30.19,30.03,8,1,8,0.00
2013-12-18,66.6,51.8,43.1,44.4,38.7,33.3,89,63,37,30.03,29.68,5,0,5,0.00
2013-12-19,59.9,51.7,39.2,41.1,25.9,12.8,86,41,22,29.91,29.68,28,6,28,0.00
2013-12-20,66.8,54.6,40.8,26.7,14.8,-1.2,54,25,7,30.00,29.92,17,2,18,0.00
2013-12-21,65.0,46.9,35.2,36.3,30.8,23.6,73,55,29,30.09,29.95,8,0,8,0.00
2013-12-22,65.0,49.1,36.1,39.3,35.8,31.3,84,62,37,30.29,30.09,11,1,13,0.00
2013-12-23,64.3,50.8,38.6,41.7,38.1,33.7,86,63,42,30.42,30.28,8,0,8,0.00
2013-12-24,71.3,55.0,43.1,42.7,38.7,36.3,79,57,29,30.32,30.20,17,1,17,0.00
2013-12-25,64.7,54.9,41.1,37.8,35.1,30.8,70,48,35,30.32,30.21,12,1,12,0.00
2013-12-26,67.3,52.5,40.4,35.7,31.5,27.9,66,46,26,30.27,30.18,10,1,10,0.00
2013-12-27,60.7,48.4,37.4,37.1,32.7,28.9,79,56,38,30.25,30.11,7,0,7,0.00
2013-12-28,72.7,55.4,35.6,35.4,26.9,18.0,77,40,16,30.14,30.01,19,3,20,0.00
2013-12-29,65.0,54.5,44.7,36.1,25.9,15.1,62,35,17,30.19,30.06,15,2,16,0.00
2013-12-30,64.1,50.3,39.1,37.6,31.2,23.9,64,49,32,30.26,30.19,8,0,8,0.00
2013-12-31,47.6,43.9,40.9,35.0,33.1,31.4,72,65,59,30.26,30.20,1,0,1,0.00
2014-1-1,66.3,54.8,36.4,35.3,32.1,27.9,71,44,26,30.22,30.12,6,0,6,0.00
2014-1-2,67.5,52.8,41.1,37.2,33.7,30.9,68,50,30,30.19,30.04,9,0,10,0.00